Location: ???????
(55.4362°N, 38.1183°E)
Time: 08:27:38
(UTC+00:00)

FENGYUN 1C DEB - Visible Passes

Search period start: 29 January 2022 00:00
Search period end: 08 February 2022 00:00
Orbit: 747 x 1063 km, 98.2° (Epoch: 28 January)

Date Brightness Start Highest point End Pass type
(mag) Time Alt. Az. Time Alt. Az. Time Alt. Az.
29 Jan ? 17:38:25 11° NNE 17:38:25 11° NNE 17:39:07 10° NNE visible
29 Jan ? 19:21:34 15° N 19:21:34 15° N 19:22:52 10° N visible
29 Jan ? 21:04:43 12° NNW 21:04:43 12° NNW 21:05:12 10° NNW visible
30 Jan ? 17:42:36 11° NNE 17:42:36 11° NNE 17:43:33 10° NNE visible
30 Jan ? 19:25:45 16° N 19:25:45 16° N 19:27:08 10° N visible
30 Jan ? 21:08:55 12° NNW 21:08:55 12° NNW 21:09:26 10° NNW visible
31 Jan ? 17:46:47 12° NNE 17:46:47 12° NNE 17:47:56 10° N visible
31 Jan ? 19:29:57 16° N 19:29:57 16° N 19:31:22 10° N visible
31 Jan ? 21:13:06 13° NNW 21:13:06 13° NNW 21:13:39 10° NNW visible
01 Feb ? 17:50:58 12° NNE 17:50:58 12° NNE 17:52:18 10° N visible
01 Feb ? 19:34:07 17° N 19:34:07 17° N 19:35:38 10° N visible
01 Feb ? 21:17:17 13° NNW 21:17:17 13° NNW 21:17:51 10° NNW visible
02 Feb ? 17:55:08 13° NNE 17:55:08 13° NNE 17:56:38 10° N visible
02 Feb ? 19:38:18 17° N 19:38:18 17° N 19:39:53 10° N visible
02 Feb ? 21:21:27 13° NNW 21:21:27 13° NNW 21:22:04 10° NNW visible
03 Feb ? 17:59:19 13° NNE 17:59:19 13° NNE 18:00:57 10° N visible
03 Feb ? 19:42:28 18° N 19:42:28 18° N 19:44:06 10° N visible
03 Feb ? 21:25:38 13° NNW 21:25:38 13° NNW 21:26:16 10° NNW visible
04 Feb ? 18:03:29 14° NNE 18:03:29 14° NNE 18:05:15 10° N visible
04 Feb ? 19:46:39 18° N 19:46:39 18° N 19:48:21 10° N visible
04 Feb ? 21:29:48 13° NNW 21:29:48 13° NNW 21:30:28 10° NNW visible
05 Feb ? 18:07:40 14° NNE 18:07:40 14° NNE 18:09:33 10° N visible
05 Feb ? 19:50:49 19° N 19:50:49 19° N 19:52:34 10° N visible
05 Feb ? 21:33:58 13° NNW 21:33:58 13° NNW 21:34:39 10° NNW visible
06 Feb ? 18:11:50 15° NNE 18:11:50 15° NNE 18:13:49 10° N visible
06 Feb ? 19:54:59 19° N 19:54:59 19° N 19:56:48 10° N visible
06 Feb ? 21:38:08 13° NNW 21:38:08 13° NNW 21:38:49 10° NNW visible
07 Feb ? 18:15:59 15° NNE 18:15:59 15° NNE 18:18:05 10° N visible
07 Feb ? 19:59:09 20° N 19:59:09 20° N 20:01:01 10° N visible
07 Feb ? 21:42:18 13° NNW 21:42:18 13° NNW 21:42:59 10° NNW visible
